Regional Weather Roundup
Issued by NWS

Home | Current Version | Previous Version | Text Only | Print | Product List | Glossary On
Versions: 1 2 3 4 5 6 7 8 9 10 11 12 13 14 15 16 17 18 19 20 21 22 23 24 25 26 27 28 29 30 31 32 33 34 35 36 37 38 39 40 41 42 43 44 45 46 47 48 49 50
000
ASUS43 KIND 250659
RWRIN

WEATHER ROUNDUP FOR INDIANA
NATIONAL WEATHER SERVICE INDIANAPOLIS IN
300 AM EDT TUE JUL 25 2017

NOTE: "FAIR" INDICATES FEW OR NO CLOUDS BELOW 12,000 FEET WITH NO
SIGNIFICANT WEATHER AND/OR OBSTRUCTIONS TO VISIBILITY.

* - STATION DOES NOT REPORT WEATHER SUCH AS PRECIPITATION OR FOG.

+ - STATION NOT QUALITY CONTROLLED BY THE NATIONAL WEATHER SERVICE.
    USE DATA WITH CAUTION...ESPECIALLY DEWPOINT AND RELATIVE
    HUMIDITY OBSERVATIONS.

INZ001>003-010>013-019-020-250800-
NORTHWEST INDIANA

CITY           SKY/WX    TMP DP  RH WIND       PRES   REMARKS
MICHIGAN CITY+ FAIR      57  57 100 CALM      30.15S FOG
MONTICELLO +   FAIR      61  59  95 CALM      30.13R

$$

LMZ046-743>745-250800-
SOUTHERN LAKE MICHIGAN

STATION/POSITION TIME  TEMP    WIND        PRES    WAVE
                       AIR SEA DIR/SP/G            HT
                 (UTC) (F)     (DEG/KT/KT) (MB)    (FT)
BURNS HARBOR     0640   67     100/  8/ 10 1020.7S
MICHIGAN CITY    0610   65      80/  6/  7   N/A
5NW MICH CITY    0650   68 74  110/  8/ 10   N/A     4

$$

INZ004-005-014>016-021>024-250800-
NORTH CENTRAL INDIANA

CITY           SKY/WX    TMP DP  RH WIND       PRES   REMARKS
GOSHEN         FAIR      56  53  90 CALM      30.15R FOG
SOUTH BEND     FAIR      58  57  97 CALM      30.16R

$$

INZ006>009-017-018-025>027-250800-
NORTHEAST INDIANA

CITY           SKY/WX    TMP DP  RH WIND       PRES   REMARKS
FORT WAYNE     FAIR      58  55  90 CALM      30.14F
KENDALLVILLE + FAIR      55  55 100 CALM      30.16S

$$

INZ028-029-035-036-043>045-051>053-250800-
WEST CENTRAL INDIANA

CITY           SKY/WX    TMP DP  RH WIND       PRES   REMARKS
LAFAYETTE      FAIR      63  60  90 E7        30.12R
TERRE HAUTE    FAIR      65  62  90 NE5       30.09S

$$

INZ030>032-037>040-046>048-054>057-064-065-250800-
CENTRAL INDIANA

CITY           SKY/WX    TMP DP  RH WIND       PRES   REMARKS
GREENWOOD *+   FAIR     N/A N/A N/A E5        30.13S
INDIANAPOLIS   FAIR      66  57  72 E10       30.11S
-EAGLE CREEK   FAIR      65  57  75 E6        30.12R
KOKOMO +       FAIR      61  58  90 E7        30.14S
MT COMFORT *+  FAIR      59  57  94 E3        30.13S
SHELBYVILLE    FAIR      62  57  83 NE6       30.12R

$$

INZ033-034-041-042-049-050-058-059-250800-
EAST CENTRAL INDIANA

CITY           SKY/WX    TMP DP  RH WIND       PRES   REMARKS
MUNCIE         FAIR      60  57  89 E3        30.14S
RICHMOND +     FAIR      55  55 100 NE5       30.15S

$$

INZ060-061-067>069-081>083-085>088-250800-
SOUTHWEST INDIANA

CITY           SKY/WX    TMP DP  RH WIND       PRES   REMARKS
EVANSVILLE     FAIR      71  68  90 NE5       30.05S
HUNTINGBURG *+ FAIR      70  68  93 NE6       30.06S

$$

INZ062-063-066-070>080-084-089>092-250800-
SOUTH CENTRAL AND SOUTHEAST INDIANA

CITY           SKY/WX    TMP DP  RH WIND       PRES   REMARKS
BLOOMINGTON    FAIR      68  60  75 E7        30.10R
MADISON *+     FAIR      66  61  82 NE6       30.12S
SEYMOUR +      FAIR     N/A N/A N/A NE3       30.09S

$$




USA.gov is the U.S. government's official web portal to all federal, state and local government web resources and services.